Location: Quaker Farms
(41.4276°N, 73.1557°W)
Time: 01:53:36
(UTC+00:00)

Altair - Pass Details

Date: 24 June 2021
Orbit: 1501 x 1682 km, 47.2° (Epoch: 23 July)

Event Time Altitude Azimuth Distance (km) Brightness Sun altitude
Rises 19:37:53 0° 277° (W) 4,703 10.6 51.7°
Reaches altitude 10° 19:40:58 10° 281° (W) 3,742 10.3 51.1°
Maximum altitude 19:50:24 62° 2° (N) 1,766 8.5 49.4°
Drops below altitude 10° 20:00:13 10° 82° (E) 3,885 9.3 47.6°
Sets 20:03:29 0° 86° (E) 4,891 9.7 47.0°
